Flag Weather past 2 weeks in Cúcuta, Colombia

Now
70 °F

Passing clouds.


Feels Like: 70 °F
Forecast: 65 / 95 °F
Wind: N/A

Location: San Antonio Del Tachira Airport

Current Time: Nov 26, 2014 at 5:29:33 AM

Latest Report: Nov 26, 2014 at 4:00 AM


Visibility: N/A

Pressure: 29.89 "Hg

Humidity: 100%

Dew point: 70 °F

Location of CúcutaLocation

Historic Weather in Cúcuta — Graph

°F

Cúcuta temperature yesterday

Maximum temperature yesterday: 91 °F (at 12:00 PM)
Minimum temperature yesterday: 72 °F (at 5:00 AM)
Average temperature yesterday: 82 °F

Past Weeks' High & Low Weather Summary

 TemperatureHumidityPressure
High93 °F (Nov 17, 1:00 PM)100% (Nov 11, 8:00 AM)30.04 "Hg (Nov 11, 8:00 AM)
Low70 °F (Nov 14, 4:00 AM)41% (Nov 18, 1:00 PM)29.74 "Hg (Nov 17, 6:00 PM)
Average81 °F71%29.92 "Hg
* Reported Nov 11 4:00 AM — Nov 26 4:00 AM, Cúcuta, Weather by CustomWeather, © 2014

Note: Actual official high and low records may vary slightly from our data, if they occured in-between our weather recording intervals... More about our weather records

Advertising

Cúcuta weather history for previous 24 hours

 ConditionsComfort  
Time TempWeatherWind HumidityBarometerVisibility
4:00 AM
Nov 26
70 °FPassing clouds.N/A100%29.89 "HgN/A
10:00 PM
Nov 25
77 °FPassing clouds.N/A83%29.92 "HgN/A
9:00 PM77 °FPassing clouds.N/A83%29.92 "HgN/A
8:00 PM81 °FPassing clouds.N/A62%29.89 "HgN/A
6:00 PM82 °FPassing clouds.N/A51%29.86 "HgN/A
5:00 PM84 °FPassing clouds.N/A58%29.86 "HgN/A
4:00 PM86 °FScattered clouds.N/A52%29.89 "HgN/A
3:00 PM86 °FPartly sunny.N/A52%29.89 "HgN/A
2:00 PM88 °FPartly sunny.N/A52%29.89 "HgN/A
1:00 PM90 °FScattered clouds.N/A49%29.89 "HgN/A
12:00 PM91 °FScattered clouds.N/A41%29.89 "HgN/A
11:00 AM90 °FScattered clouds.N/A46%29.95 "HgN/A
10:00 AM88 °FScattered clouds.N/A49%29.95 "HgN/A
9:00 AM84 °FScattered clouds.N/A55%29.95 "HgN/A
8:00 AM82 °FScattered clouds.N/A58%29.92 "HgN/A
7:00 AM75 °FScattered clouds.N/A74%29.92 "HgN/A
6:00 AM72 °FScattered clouds.N/A94%29.89 "HgN/A
5:00 AM72 °FPassing clouds.N/A88%29.89 "HgN/A
Weather by CustomWeather, © 2014

See weather overviewHow to use our weather pages